Regional Weather Roundup
Issued by NWS

Home | Current Version | Previous Version | Text Only | Print | Product List | Glossary On
Versions: 1 2 3 4 5 6 7 8 9 10 11 12 13 14 15 16 17 18 19 20 21 22 23 24 25 26 27 28 29 30 31 32 33 34 35 36 37 38 39 40 41 42 43 44 45 46 47 48 49 50
000
ASUS43 KTOP 150459
RWRKS

WEATHER ROUNDUP FOR KANSAS
NATIONAL WEATHER SERVICE GOODLAND KS
1200 AM CDT MON SEP 15 2014

NOTE:  "FAIR" INDICATES FEW OR NO CLOUDS BELOW 12,000 FEET WITH NO
SIGNIFICANT WEATHER AND/OR OBSTRUCTIONS TO VISIBILITY.

KSZ001>006-013>018-027>032-041>047-150600-
NORTHWEST KANSAS

CITY           SKY/WX    TMP DP  RH WIND       PRES   REMARKS
GOODLAND       MOCLDY    61  56  83 E3        30.04R
HILL CITY      PTCLDY    60  57  89 CALM      29.96R
RUSSELL        CLEAR     69  60  73 S17       29.95R
$$

KSZ061>065-074>080-084>089-150600-
SOUTHWEST KANSAS

CITY           SKY/WX    TMP DP  RH WIND       PRES   REMARKS
DODGE CITY     PTCLDY    69  59  70 S17       30.01F
ELKHART          N/A    N/A N/A N/A MISG        N/A
GARDEN CITY    PTCLDY    67  60  78 S10       30.00S
GREAT BEND     CLEAR     70  59  68 S18       29.98S
LIBERAL        PTCLDY    66  57  72 S10       30.07S
PRATT          CLEAR     64  59  82 S15       30.04S
$$

KSZ066>073-081>083-090>101-150600-
SOUTHEAST KANSAS

CITY           SKY/WX    TMP DP  RH WIND       PRES   REMARKS
CHANUTE        MOCLDY    68  61  78 S12       30.09S
COFFEYVILLE    CLOUDY    67  62  84 S10       30.10S
HUTCHINSON     CLEAR     69  59  70 S16       30.01F
NEWTON         CLEAR     68  57  68 S18       30.06R
PARSONS        MOCLDY    68  61  78 VRB6      30.11S
WICHITA INTL   PTCLDY    69  60  73 S17       30.04F
WICHITA JABRA  PTCLDY    68  60  75 S14G23    30.05S
WINFIELD       MOCLDY    67  62  84 S9        30.09S
$$

KSZ007>012-019>026-033>040-048>060-102>105-150600-
NORTHEAST KANSAS

CITY           SKY/WX    TMP DP  RH WIND       PRES   REMARKS
CONCORDIA      PTCLDY    61  60  97 E7        29.98R
EMPORIA        CLEAR     64  60  87 S13       30.05F
LAWRENCE       CLEAR     61  57  87 E3        30.07S
MANHATTAN      CLEAR     68  61  78 S7        30.00F
OLATHE IND     PTCLDY    61  57  87 E8        30.09F
OLATHE EXE     PTCLDY    60  56  86 SE6       30.08F
SALINA         CLEAR     71  60  68 S15G22    29.97F
TOPEKA BILLARD CLEAR     64  59  83 E5        30.05S
TOPEKA FORBES  CLEAR     65  58  78 SE9       30.04R
$$



USA.gov is the U.S. government's official web portal to all federal, state and local government web resources and services.